Location: Oakhurst
(33.6448°N, 111.9543°W)
Time: 02:31:37
(UTC+00:00)

DUCHIFAT 1 - Pass Details

Date: 05 August 2021
Orbit: 585 x 602 km, 98.0° (Epoch: 24 September)

Event Time Altitude Azimuth Distance (km) Brightness Sun altitude
Rises 09:38:00 0° 5° (N) 2,848 ? -31.5°
Reaches altitude 10° 09:40:13 10° 1° (N) 1,944 ? -31.2°
Enters shadow 09:41:54 23° 352° (N) 1,301 ? -31.0°
